Tracking 27112 objects as of 26-Mar-2023
HD Live streaming from Space Station
objects crossing your sky now

HISPASAT 1A

Track HISPASAT 1A now!
HISPASAT 1A is classified as:


NORAD ID: 22116
Int'l Code: 1992-060A
Perigee: 36,044.7 km
Apogee: 36,084.8 km
Inclination: 13.4 °
Period: 1,450.0 minutes
Semi major axis: 42435 km
RCS: 7.143 m2 (large)
Launch date: September 10, 1992
Source: Spain (SPN)
Launch site: FRENCH GUIANA (FRGUI)
Your satellite tracking list
Your tracking list is empty




NASA's NSSDC Master Catalog

Two Line Element Set (TLE):
1 22116U 92060A   23084.89661498 -.00000058  00000-0  00000-0 0  9991
2 22116  13.3847  18.6056 0004729 343.3834 232.2353  0.99312838107782
Source of the keplerian elements: AFSPC